• In Czech Republic
  • List of Countries
  • For 7 days
  • Water Temperature
  • Satellite Maps
  • Weather Map
  • Weather Widgets
  • user-avatar
    Login

    Hourly Weather Middlesbrough

    Today, 19 October, Thursday

    Time Temperature Precipitation Wind Pressure Humidity
    00:00 +11°C° 0 mm 3 mps 755 mmHg 94%
    01:00 +11°C° 0.1 mm 3 mps 755 mmHg 94%
    02:00 +12°C° 0.1 mm 4 mps 754 mmHg 95%
    03:00 +12°C° 0.1 mm 4 mps 754 mmHg 96%
    04:00 +12°C° 0 mm 3 mps 753 mmHg 96%
    05:00 +12°C° 0 mm 3 mps 753 mmHg 96%
    06:00 +12°C° 0 mm 2 mps 753 mmHg 96%
    07:00 +12°C° 0 mm 3 mps 752 mmHg 94%
    08:00 +12°C° 0 mm 3 mps 752 mmHg 92%
    09:00 +12°C° 0 mm 4 mps 752 mmHg 90%
    10:00 +13°C° 0.3 mm 4 mps 752 mmHg 89%
    11:00 +13°C° 0.3 mm 4 mps 751 mmHg 88%
    12:00 +13°C° 0.3 mm 4 mps 751 mmHg 88%
    13:00 +13°C° 2.7 mm 4 mps 750 mmHg 90%
    14:00 +13°C° 2.7 mm 3 mps 749 mmHg 93%
    15:00 +13°C° 2.7 mm 3 mps 749 mmHg 95%
    16:00 +13°C° 1.4 mm 4 mps 748 mmHg 95%
    17:00 +14°C° 1.4 mm 4 mps 748 mmHg 95%
    18:00 +14°C° 1.4 mm 5 mps 747 mmHg 95%
    19:00 +14°C° 0.1 mm 5 mps 747 mmHg 94%
    20:00 +13°C° 0.1 mm 5 mps 746 mmHg 93%
    21:00 +13°C° 0.1 mm 5 mps 746 mmHg 92%
    22:00 +13°C° 0.2 mm 5 mps 746 mmHg 91%
    23:00 +13°C° 0.2 mm 6 mps 745 mmHg 90%

    Tomorrow, 20 October, Friday

    Time Temperature Precipitation Wind Pressure Humidity
    00:00 +13°C° 0.2 mm 6 mps 745 mmHg 90%
    01:00 +13°C° 0.2 mm 6 mps 745 mmHg 90%
    02:00 +13°C° 0.2 mm 5 mps 744 mmHg 91%
    03:00 +12°C° 0.2 mm 5 mps 744 mmHg 91%
    04:00 +12°C° 0.1 mm 4 mps 744 mmHg 92%
    05:00 +12°C° 0.1 mm 4 mps 745 mmHg 92%
    06:00 +11°C° 0.1 mm 3 mps 745 mmHg 93%
    07:00 +12°C° 0.1 mm 3 mps 745 mmHg 91%
    08:00 +12°C° 0.1 mm 3 mps 746 mmHg 89%
    09:00 +13°C° 0.1 mm 3 mps 747 mmHg 87%
    10:00 +13°C° 0.2 mm 4 mps 747 mmHg 84%
    11:00 +14°C° 0.2 mm 4 mps 748 mmHg 82%
    12:00 +15°C° 0.2 mm 4 mps 748 mmHg 80%
    13:00 +14°C° 0.2 mm 5 mps 749 mmHg 81%
    14:00 +14°C° 0.2 mm 6 mps 749 mmHg 82%
    15:00 +13°C° 0.2 mm 6 mps 750 mmHg 82%
    16:00 +11°C° 0 mm 6 mps 750 mmHg 83%
    17:00 +10°C° 0 mm 5 mps 750 mmHg 84%
    18:00 +9°C° 0 mm 5 mps 751 mmHg 84%
    19:00 +9°C° 0 mm 5 mps 751 mmHg 83%
    20:00 +9°C° 0 mm 5 mps 750 mmHg 83%
    21:00 +9°C° 0 mm 5 mps 750 mmHg 82%
    22:00 +9°C° 0.6 mm 6 mps 749 mmHg 85%
    23:00 +10°C° 0.6 mm 7 mps 748 mmHg 87%

    Day after tomorrow, 21 October, Saturday

    Time Temperature Precipitation Wind Pressure Humidity
    00:00 +10°C° 0.6 mm 8 mps 748 mmHg 90%
    01:00 +11°C° 0.3 mm 8 mps 747 mmHg 90%
    02:00 +11°C° 0.3 mm 8 mps 746 mmHg 89%
    03:00 +12°C° 0.3 mm 8 mps 745 mmHg 89%
    04:00 +11°C° 0 mm 8 mps 745 mmHg 87%
    05:00 +11°C° 0 mm 8 mps 744 mmHg 86%
    06:00 +10°C° 0 mm 7 mps 744 mmHg 84%
    07:00 +10°C° 0 mm 8 mps 744 mmHg 81%
    08:00 +10°C° 0 mm 9 mps 743 mmHg 79%
    09:00 +11°C° 0 mm 10 mps 743 mmHg 76%
    10:00 +11°C° 0.1 mm 10 mps 743 mmHg 77%
    11:00 +11°C° 0.1 mm 10 mps 742 mmHg 77%
    12:00 +11°C° 0.1 mm 10 mps 741 mmHg 77%
    13:00 +11°C° 0.2 mm 10 mps 740 mmHg 78%
    14:00 +11°C° 0.2 mm 10 mps 740 mmHg 78%
    15:00 +11°C° 0.2 mm 10 mps 739 mmHg 78%
    16:00 +11°C° 0.6 mm 10 mps 739 mmHg 81%
    17:00 +11°C° 0.6 mm 10 mps 739 mmHg 83%
    18:00 +11°C° 0.6 mm 10 mps 739 mmHg 86%
    19:00 +11°C° 0.2 mm 9 mps 739 mmHg 86%
    20:00 +11°C° 0.2 mm 9 mps 740 mmHg 85%
    21:00 +11°C° 0.2 mm 8 mps 741 mmHg 85%
    22:00 +10°C° 0.2 mm 8 mps 742 mmHg 85%
    23:00 +10°C° 0.2 mm 8 mps 742 mmHg 84%

    22 October, Sunday

    Time Temperature Precipitation Wind Pressure Humidity
    00:00 +10°C° 0.2 mm 8 mps 743 mmHg 84%
    01:00 +10°C° 0.6 mm 8 mps 743 mmHg 85%
    02:00 +9°C° 0.6 mm 8 mps 744 mmHg 86%
    03:00 +9°C° 0.6 mm 8 mps 744 mmHg 87%
    04:00 +9°C° 0.7 mm 8 mps 745 mmHg 86%
    05:00 +10°C° 0.7 mm 7 mps 746 mmHg 85%
    06:00 +10°C° 0.7 mm 7 mps 746 mmHg 84%
    07:00 +10°C° 0 mm 8 mps 747 mmHg 83%
    08:00 +10°C° 0 mm 8 mps 748 mmHg 82%
    09:00 +11°C° 0 mm 9 mps 749 mmHg 81%
    10:00 +10°C° 0.1 mm 9 mps 750 mmHg 80%
    11:00 +10°C° 0.1 mm 9 mps 750 mmHg 79%
    12:00 +9°C° 0.1 mm 10 mps 751 mmHg 78%
    13:00 +9°C° 0.1 mm 10 mps 752 mmHg 78%
    14:00 +9°C° 0.1 mm 10 mps 752 mmHg 79%
    15:00 +9°C° 0.1 mm 10 mps 753 mmHg 79%
    16:00 +10°C° 0 mm 9 mps 753 mmHg 78%
    17:00 +10°C° 0 mm 9 mps 754 mmHg 78%
    18:00 +10°C° 0 mm 9 mps 755 mmHg 78%
    19:00 +10°C° 0 mm 8 mps 756 mmHg 79%
    20:00 +9°C° 0 mm 8 mps 756 mmHg 80%
    21:00 +9°C° 0 mm 7 mps 757 mmHg 81%
    22:00 +9°C° 0 mm 6 mps 757 mmHg 82%
    23:00 +9°C° 0 mm 6 mps 758 mmHg 84%

    23 October, Monday

    Time Temperature Precipitation Wind Pressure Humidity
    00:00 +9°C° 0 mm 5 mps 758 mmHg 85%
    01:00 +9°C° 0.1 mm 5 mps 758 mmHg 87%
    02:00 +9°C° 0.1 mm 5 mps 758 mmHg 89%
    03:00 +11°C° 0.1 mm 4 mps 758 mmHg 90%
    04:00 +10°C° 0.2 mm 5 mps 757 mmHg 91%
    05:00 +12°C° 0.2 mm 5 mps 757 mmHg 91%
    06:00 +12°C° 0.2 mm 5 mps 757 mmHg 92%
    07:00 +13°C° 0 mm 5 mps 757 mmHg 92%
    08:00 +13°C° 0 mm 4 mps 757 mmHg 91%
    09:00 +14°C° 0 mm 4 mps 758 mmHg 91%
    10:00 +15°C° 0 mm 4 mps 758 mmHg 89%
    11:00 +15°C° 0 mm 4 mps 758 mmHg 87%
    12:00 +16°C° 0 mm 5 mps 758 mmHg 84%
    13:00 +16°C° 0.1 mm 5 mps 757 mmHg 85%
    14:00 +16°C° 0.1 mm 6 mps 757 mmHg 85%
    15:00 +16°C° 0.1 mm 7 mps 757 mmHg 86%
    16:00 +16°C° 0 mm 6 mps 757 mmHg 87%
    17:00 +16°C° 0 mm 6 mps 757 mmHg 88%
    18:00 +16°C° 0 mm 6 mps 757 mmHg 90%
    19:00 +15°C° 0 mm 6 mps 757 mmHg 90%
    20:00 +15°C° 0 mm 6 mps 758 mmHg 90%
    21:00 +15°C° 0 mm 5 mps 758 mmHg 90%
    22:00 +15°C° 0 mm 5 mps 758 mmHg 90%
    23:00 +14°C° 0 mm 5 mps 759 mmHg 91%

    24 October, Tuesday

    Time Temperature Precipitation Wind Pressure Humidity
    00:00 +14°C° 0 mm 5 mps 759 mmHg 91%
    01:00 +14°C° 1 mm 5 mps 759 mmHg 91%
    02:00 +14°C° 1 mm 5 mps 758 mmHg 91%
    03:00 +14°C° 1 mm 5 mps 758 mmHg 91%
    04:00 +15°C° 0.3 mm 6 mps 758 mmHg 90%
    05:00 +15°C° 0.3 mm 6 mps 758 mmHg 89%
    06:00 +16°C° 0.3 mm 7 mps 758 mmHg 88%
    07:00 +16°C° 0.4 mm 7 mps 758 mmHg 88%
    08:00 +16°C° 0.4 mm 7 mps 758 mmHg 87%
    09:00 +16°C° 0.4 mm 7 mps 759 mmHg 87%
    10:00 +16°C° 0.1 mm 7 mps 759 mmHg 86%
    11:00 +16°C° 0.1 mm 7 mps 759 mmHg 86%
    12:00 +17°C° 0.1 mm 7 mps 759 mmHg 86%
    13:00 +17°C° 0.1 mm 7 mps 759 mmHg 85%
    14:00 +17°C° 0.1 mm 7 mps 759 mmHg 85%
    15:00 +17°C° 0.1 mm 7 mps 759 mmHg 84%
    16:00 +16°C° 0.2 mm 7 mps 759 mmHg 85%
    17:00 +16°C° 0.2 mm 6 mps 759 mmHg 86%
    18:00 +16°C° 0.2 mm 6 mps 760 mmHg 87%
    19:00 +15°C° 0 mm 5 mps 760 mmHg 88%
    20:00 +15°C° 0 mm 4 mps 761 mmHg 88%
    21:00 +14°C° 0 mm 4 mps 761 mmHg 89%
    22:00 +14°C° 0 mm 4 mps 761 mmHg 90%
    23:00 +13°C° 0 mm 3 mps 762 mmHg 90%
    Show more